Location: Ostrava
(49.8330°N, 18.2830°E)
Time: 18:29:57
(UTC+02:00)

Cosmos 2219 Rocket - Visible Passes

Search period start: 26 May 2016 00:00
Search period end: 05 June 2016 00:00
Orbit: 829 x 846 km, 71.0° (Epoch: 26 May)

Date Brightness Start Highest point End Pass type
(mag) Time Alt. Az. Time Alt. Az. Time Alt. Az.
26 May 5.3 02:58:05 10° N 03:01:46 17° NE 03:05:26 10° ENE visible
26 May 4.3 21:20:50 10° WSW 21:25:54 33° NW 21:30:58 10° NNE visible
26 May 5.8 23:10:01 10° NW 23:11:45 11° NNW 23:13:29 10° N visible
27 May 5.3 02:41:49 10° N 02:45:21 17° NNE 02:48:53 10° ENE visible
27 May 5.7 22:53:21 10° NW 22:55:18 12° NNW 22:57:17 10° N visible
28 May 5.3 02:25:32 10° N 02:28:56 16° NNE 02:32:21 10° ENE visible
28 May 5.6 22:36:42 10° NW 22:38:52 12° NNW 22:41:02 10° N visible
29 May 5.2 02:09:15 10° N 02:12:31 15° NNE 02:15:47 10° ENE visible
29 May 3.2 03:52:20 10° NNW 03:57:50 53° NE 04:03:17 10° SE visible
29 May 5.6 22:20:05 10° NW 22:22:27 13° NNW 22:24:49 10° N visible
30 May 5.2 01:52:58 10° N 01:56:06 15° NNE 01:59:12 10° ENE visible
30 May 3.3 03:36:01 10° NNW 03:41:29 50° NE 03:46:54 10° SE visible
30 May 5.5 22:03:28 10° NW 22:06:01 13° NNW 22:08:34 10° N visible
31 May 5.2 01:36:43 10° N 01:39:41 14° NNE 01:42:38 10° ENE visible
31 May 3.4 03:19:42 10° NNW 03:25:08 47° NE 03:30:30 10° SE visible
31 May 5.4 21:46:52 10° WNW 21:49:35 13° NNW 21:52:18 10° N visible
01 Jun 5.2 01:20:27 10° N 01:23:15 14° NNE 01:26:03 10° ENE visible
01 Jun 3.4 03:03:23 10° NNW 03:08:46 44° NE 03:14:06 10° SE visible
01 Jun 5.3 21:30:17 10° WNW 21:33:10 14° NNW 21:36:03 10° N visible
02 Jun 5.2 01:04:12 10° N 01:06:50 13° NNE 01:09:28 10° NE visible
02 Jun 3.5 02:47:04 10° NNW 02:52:24 42° NE 02:57:41 10° ESE visible
03 Jun 5.1 00:47:57 10° N 00:50:24 13° NNE 00:52:51 10° NE visible
03 Jun 3.6 02:30:46 10° NNW 02:36:02 40° NE 02:41:16 10° ESE visible
04 Jun 5.1 00:31:43 10° N 00:33:59 12° NNE 00:36:14 10° NE visible
04 Jun 3.7 02:14:27 10° NNW 02:19:40 38° NE 02:24:51 10° ESE visible
